Change the Weather History Date:

Monday, January 25, 2010

  Actual Average Record
Temperature  
Mean Temperature 38 °F -  
Max Temperature 46 °F 21 °F 41 °F (1997)
Min Temperature 30 °F 0 °F -24 °F (2009)
Degree Days  
Heating Degree Days 27    
Moisture  
Dew Point 39 °F    
Average Humidity 90    
Maximum Humidity 100    
Minimum Humidity 81    
Precipitation  
Precipitation 0.53 in - - ()
Sea Level Pressure  
Sea Level Pressure 29.50 in    
Wind  
Wind Speed 9 mph (SSE)    
Max Wind Speed 22 mph    
Max Gust Speed 36 mph    
Visibility 6 miles    
Events Fog , Rain    
Averages and records for this station are not official NWS values.
T = Trace of Precipitation, MM = Missing Value Source: NWS Daily Summary

Daily Weather History Graph

Daily Weather History Graph

Search for Another Location

Airport or City:

Trip Planner

Search our weather history database for the weather conditions in past years. The results will help you decide how hot, cold, wet, or windy it might be!

Date:

Astronomy

Jan. 25, 2010 Rise Set
Actual Time 7:10 AM EST 4:43 PM EST
Civil Twilight 6:39 AM EST 5:15 PM EST
Nautical Twilight 6:03 AM EST 5:50 PM EST
Astronomical Twilight 5:29 AM EST 6:25 PM EST
Moon 11:40 AM EST (1/25) 2:49 AM EST (1/25)
Length of Visible Light 10h 36m
Length of Day
9h 33m
Waxing Gibbous, 73% of the Moon is Illuminated
Jan 25
Waxing Gibbous
Jan 30
Full
Feb 5
Last Quarter
Feb 13
New
Feb 21
First Quarter

Hourly Weather History & Observations

Time (EST) Temp. Windchill Dew Point Humidity Pressure Visibility Wind Dir Wind Speed Gust Speed Precip Events Conditions
12:52 AM 30.9 °F - 28.0 °F 89% 29.99 in 10.0 mi Calm Calm - N/A   Overcast
1:27 AM 30.2 °F - 28.4 °F 93% 29.94 in 10.0 mi Calm Calm - N/A   Overcast
1:42 AM 33.8 °F - 30.2 °F 87% 29.94 in 10.0 mi Calm Calm - N/A   Overcast
1:52 AM 35.1 °F 31.0 °F 30.0 °F 82% 29.97 in 10.0 mi South 4.6 mph - N/A   Overcast
2:05 AM 35.6 °F 28.6 °F 30.2 °F 81% 29.93 in 10.0 mi SSE 9.2 mph 18.4 mph N/A   Overcast
2:52 AM 36.0 °F 29.6 °F 30.9 °F 82% 29.96 in 10.0 mi South 8.1 mph 17.3 mph N/A   Overcast
3:52 AM 37.0 °F 29.8 °F 32.0 °F 82% 29.93 in 10.0 mi SSE 10.4 mph 20.7 mph N/A   Overcast
4:52 AM 37.0 °F 28.1 °F 32.0 °F 82% 29.89 in 10.0 mi SSE 15.0 mph 20.7 mph 0.00 in Rain Light Rain
5:52 AM 37.0 °F 29.3 °F 33.1 °F 86% 29.88 in 10.0 mi SE 11.5 mph - 0.00 in   Overcast
6:52 AM 39.0 °F 33.4 °F 34.0 °F 82% 29.83 in 10.0 mi SSE 8.1 mph - N/A   Overcast
7:52 AM 39.0 °F 31.0 °F 36.0 °F 89% 29.81 in 9.0 mi SSE 13.8 mph - 0.00 in   Overcast
8:52 AM 39.9 °F 32.9 °F 37.0 °F 89% 29.76 in 6.0 mi SSE 11.5 mph 17.3 mph 0.00 in   Overcast
9:06 AM 39.2 °F 32.5 °F 37.4 °F 93% 29.72 in 5.0 mi South 10.4 mph 20.7 mph 0.00 in Rain Light Rain
9:52 AM 42.1 °F 33.3 °F 37.9 °F 85% 29.71 in 10.0 mi SSE 19.6 mph 26.5 mph 0.01 in Rain Light Rain
10:04 AM 42.8 °F 36.6 °F 37.4 °F 81% 29.67 in 10.0 mi South 11.5 mph 19.6 mph 0.00 in Rain Light Rain
10:16 AM 42.8 °F 34.3 °F 39.2 °F 87% 29.66 in 10.0 mi SSE 19.6 mph 25.3 mph 0.00 in Rain Light Rain
10:48 AM 44.6 °F 37.8 °F 39.2 °F 81% 29.64 in 4.0 mi SE 15.0 mph 23.0 mph 0.00 in Rain Light Rain
10:52 AM 44.1 °F 36.8 °F 39.9 °F 85% 29.68 in 4.0 mi SSE 16.1 mph 24.2 mph 0.00 in Rain Light Rain
11:37 AM 44.6 °F 38.1 °F 41.0 °F 87% 29.57 in 3.0 mi ESE 13.8 mph - 0.01 in Rain Light Rain
11:52 AM 44.1 °F 38.6 °F 41.0 °F 89% 29.59 in 2.5 mi ESE 10.4 mph 18.4 mph 0.01 in Rain Light Rain
12:06 PM 44.6 °F 40.7 °F 42.8 °F 93% 29.53 in 4.0 mi Variable 6.9 mph - 0.01 in Rain Light Rain
12:28 PM 46.4 °F 43.5 °F 42.8 °F 87% 29.52 in 4.0 mi Variable 5.8 mph - 0.01 in Rain Light Rain
12:52 PM 44.1 °F 37.4 °F 41.0 °F 89% 29.52 in 5.0 mi SE 13.8 mph 25.3 mph 0.01 in Rain Light Rain
1:52 PM 46.0 °F 39.0 °F 42.1 °F 86% 29.45 in 6.0 mi South 17.3 mph 27.6 mph 0.02 in Rain Light Rain
2:52 PM 46.0 °F 38.8 °F 42.1 °F 86% 29.39 in 6.0 mi SSE 18.4 mph 33.4 mph 0.05 in Rain Light Rain
3:41 PM 46.4 °F 39.2 °F 42.8 °F 87% 29.33 in 2.5 mi SSE 18.4 mph 29.9 mph 0.10 in Rain Rain
3:52 PM 46.0 °F 38.5 °F 43.0 °F 89% 29.34 in 2.0 mi SSE 19.6 mph 28.8 mph 0.15 in Rain Heavy Rain
4:22 PM 46.4 °F 38.7 °F 42.8 °F 87% 29.29 in 1.5 mi SE 20.7 mph 35.7 mph 0.13 in Rain Heavy Rain
4:35 PM 46.4 °F 39.2 °F 42.8 °F 87% 29.29 in 3.0 mi SSE 18.4 mph 33.4 mph 0.17 in Rain Rain
4:52 PM 46.0 °F 38.0 °F 43.0 °F 89% 29.31 in 5.0 mi SE 21.9 mph 32.2 mph 0.19 in Rain Light Rain
5:52 PM 46.9 °F - 43.0 °F 86% 29.26 in 8.0 mi North - - 0.03 in Rain Light Rain
6:52 PM 46.9 °F - 44.1 °F 90% 29.23 in 10.0 mi North - - 0.03 in Rain Light Rain
7:52 PM 46.9 °F - 44.1 °F 90% 29.22 in 10.0 mi North - - 0.00 in   Mostly Cloudy
8:36 PM 42.8 °F - 42.8 °F 100% 29.22 in 6.0 mi North - - 0.01 in Rain Light Rain
8:52 PM 42.1 °F - 41.0 °F 96% 29.25 in 4.0 mi North - - 0.01 in   Overcast
8:58 PM 39.2 °F - 39.2 °F 100% 29.23 in 1.8 mi North - - N/A   Overcast
9:12 PM 39.2 °F - 37.4 °F 93% 29.23 in 2.0 mi North - - 0.00 in Rain Light Rain
9:21 PM 39.2 °F - 39.2 °F 100% 29.23 in 1.8 mi North - - 0.00 in   Overcast
9:29 PM 42.8 °F - 41.0 °F 93% 29.23 in 1.0 mi North - - 0.00 in   Overcast
9:47 PM 44.6 °F - 42.8 °F 93% 29.23 in 2.0 mi North - - 0.01 in Rain Light Rain
9:52 PM 45.0 °F - 43.0 °F 93% 29.25 in 5.0 mi North - - 0.02 in Rain Rain
10:09 PM 42.8 °F - 42.8 °F 100% 29.24 in 10.0 mi North - - 0.00 in Rain Light Rain
10:25 PM 42.8 °F - 39.2 °F 87% 29.24 in 2.0 mi North - - 0.00 in   Overcast
10:33 PM 42.8 °F - 41.0 °F 93% 29.24 in 7.0 mi North - - 0.00 in   Overcast
10:39 PM 41.0 °F - 41.0 °F 100% 29.24 in 1.8 mi North - - 0.00 in   Overcast
10:43 PM 39.2 °F - 39.2 °F 100% 29.24 in 0.8 mi North - - 0.00 in   Overcast
10:52 PM 39.0 °F - 37.9 °F 96% 29.27 in 0.5 mi North - - 0.00 in Fog Fog
11:47 PM 39.2 °F - 37.4 °F 93% 29.27 in 0.5 mi North - - N/A Fog Fog
11:52 PM 41.0 °F - 39.9 °F 96% 29.30 in 1.0 mi North - - N/A   Overcast
11:55 PM 41.0 °F - 39.2 °F 93% 29.28 in 2.5 mi North - - N/A   Overcast